Location: ????????
(48.4751°N, 37.6926°E)
Time: 21:07:27
(UTC+00:00)

Helios 1A Rocket - Pass Details

Date: 20 January 2021
Orbit: 562 x 586 km, 98.3° (Epoch: 02 March)

Event Time Altitude Azimuth Distance (km) Brightness Sun altitude
Rises 15:23:51 0° 137° (SE) 2,802 6.2 -12.2°
Reaches altitude 10° 15:26:11 10° 126° (SE) 1,908 5.2 -12.5°
Maximum altitude 15:29:47 30° 66° (ENE) 1,074 3.7 -13.1°
Drops below altitude 10° 15:33:25 10° 5° (N) 1,923 5.4 -13.7°
Sets 15:35:46 0° 355° (N) 2,828 6.4 -14.1°
